Location: 相模原市立博物館
(35.5593°N, 139.3931°E)
Time: 05:03:17
(UTC+09:00)

AO-27 - Visible Passes

Search period start: 23 January 2022 00:00
Search period end: 02 February 2022 00:00
Orbit: 784 x 798 km, 98.9° (Epoch: 22 January)

Date Brightness Start Highest point End Pass type
(mag) Time Alt. Az. Time Alt. Az. Time Alt. Az.
23 Jan 10.6 06:06:48 10° NE 06:10:10 17° E 06:13:30 10° SE visible
23 Jan 8.8 17:21:56 10° ESE 17:25:46 21° ENE 17:29:36 10° NNE visible
23 Jan 8.9 19:00:01 10° S 19:04:54 41° W 19:09:49 10° NNW visible
24 Jan 7.7 18:30:29 10° SSE 18:35:41 82° WSW 18:40:55 10° NNW visible
25 Jan 7.8 18:01:34 10° SSE 18:06:35 51° ENE 18:11:36 10° N visible
25 Jan 10.4 19:43:09 10° SW 19:46:17 16° W 19:49:27 10° NW visible
26 Jan 8.5 17:33:18 10° SE 17:37:36 27° ENE 17:41:54 10° NNE visible
26 Jan 9.4 19:12:19 10° SSW 19:16:54 32° W 19:21:30 10° NW visible
27 Jan 11.2 05:51:25 10° ENE 05:52:45 11° E 05:54:04 10° ESE visible
27 Jan 8.1 18:42:30 10° S 18:47:38 63° WSW 18:52:47 10° NNW visible
28 Jan 7.6 18:13:21 10° SSE 18:18:29 67° ENE 18:23:38 10° N visible
28 Jan 10.7 19:56:24 10° WSW 19:58:21 12° W 20:00:17 10° WNW visible
29 Jan 8.2 17:44:48 10° SE 17:49:27 34° ENE 17:54:07 10° N visible
29 Jan 9.8 19:24:45 10° SSW 19:28:54 24° W 19:33:06 10° NW visible
30 Jan 10.8 06:01:56 10° ENE 06:04:49 15° E 06:07:40 10° SE visible
30 Jan 8.6 18:54:37 10° S 18:59:36 48° W 19:04:36 10° NNW visible
31 Jan 7.6 18:25:13 10° SSE 18:30:24 87° ENE 18:35:37 10° NNW visible
01 Feb 7.9 17:56:26 10° SE 18:01:19 44° ENE 18:06:14 10° N visible
01 Feb 10.2 19:37:23 10° SW 19:40:56 19° W 19:44:31 10° NW visible
